Location: Nairn
(57.5833°N, 3.8667°W)
Time: 19:14:23
(UTC+00:00)

Tiros 1 - Pass Details

Date: 04 December 2020
Orbit: 630 x 663 km, 48.4° (Epoch: 22 January)

Event Time Altitude Azimuth Distance (km) Brightness Sun altitude
Rises 18:59:51 0° 266° (W) 2,994 11.9 -25.9°
Reaches altitude 10° 19:03:25 10° 239° (WSW) 2,073 10.5 -26.4°
Maximum altitude 19:05:34 13° 213° (SSW) 1,875 9.9 -26.7°
Drops below altitude 10° 19:07:41 10° 186° (S) 2,061 9.8 -26.9°
Enters shadow 19:07:56 - 183° (S) 2,105 9.8 -27.0°
Sets 19:11:14 0° 159° (SSE) 2,961 - -27.4°
